SCP
0 0 -0 -0 -0 -0 -0 -0 -0 -0 -0 -0 -0 -0 -0 -0 -0 -0 -0 -0 -0 -0 -0 -0 -0 -0 -0 -0 -0 -0 -0 -0 -0 -0 -0 -0 -0 -0 -0 -0 -0 -0 -0
-0 -0 -0 -0 -0 -0 -0 -0 -0 -0 -0 -0 -0 -0 -0 -0 -0 -0 -0 -0 -0 -0 -0 -0 -0 -0 -0 -0 -0 -0 0 0 -0 -0 -0 -0 -0 -0 -0 -0 -0 -0 -0
-0 -0 -0 -0 -0 -0 -0 -0 -0 -0 -0 -0 -0 -0 -0 -0 -0 -0 -0 -0 -0 -0 -0 -0 -0 -0 -0 -0 -0 -0 -0 0 0 -0 -0 0 -0 -0 -0 -0 -0 -0 -0
-0 -0 -0 -0 -0 -0 -0 -0 -0 -0 -0 -0 -0 -0 -0 -0 -0 -0 -0 -0 -0 -0 -0 -0 -0 -0 -0 -0 -0 -0 -0 -0 -0 -0 0 0 -0 -0 -0 -0 -0 -0 -0
-0 -0 -0 -0 -0 -0 -0 -0 -0 -0 -0 -0 -0 -0 -0 -0 -0 -0 -0 -0 -0 -0 -0 -0 -0 -0 -0 -0 -0 -0 -0 -0 -0 -0 -0 0 -0 -0 -0 -0 -0 -0 -0
-0 -0 -0 -0 -0 -0 -0 -0 -0 -0 -0 -0 -0 -0 -0 -0 -0 -0 -0 -0 -0 -0 -0 -0 -0 -0 -0 -0 -0 -0 -0 -0 -0 0 0 0 0 -0 -0 -0 -0 -0 -0
-0 -0 -0 -0 -0 -0 -0 -0 -0 -0 -0 -0 -0 -0 -0 -0 -0 -0 -0 -0 -0 -0 -0 -0 -0 -0 -0 -0 -0 -0 -0 -0 0 0 0 0 0 -0 -0 -0 -0 -0 -0
-0 -0 -0 0 -0 -0 -0 -0 -0 -0 -0 -0 -0 -0 -0 -0 -0 -0 -0 -0 -0 -0 -0 -0 -0 -0 -0 -0 -0 -0 -0 -0 0 0 0 0 -0 -0 -0 -0 -0 -0 -0
-0 -0 -0 0 0 0 -0 -0 -0 -0 -0 -0 -0 -0 -0 -0 -0 -0 -0 -0 -0 -0 -0 -0 -0 -0 -0 -0 -0 -0 -0 -0 0 0 0 0 -0 -0 -0 -0 -0 -0 -0
-0 -0 0 0 0 0 0 0 -0 -0 0 -0 -0 0 0 0 0 -0 0 -0 -0 -0 -0 -0 -0 -0 -0 -0 -0 -0 -0 -0 0 0 0 0 -0 -0 -0 -0 -0 -0 -0
0 0 0 0 0 0 0 0 0 0 0 0 0 0 0 0 0 0 0 0 -0 -0 -0 -0 -0 -0 0 -0 -0 -0 -0 0 0 0 0 0 0 -0 -0 -0 -0 -0 -0
0 0 0 0 0 0 0 0 0 0 0 0 0 0 0 0 0 0 0 0 0 0 -0 -0 0 0 0 0 0 0 0 0 0 0 0 0 0 -0 0 0 0 0 0
0 0 0 0 0 0 0 0 0 0 0 0 0 0 0 0 0 0 0 0 0 0 0 0 0 0 0 0 0 0 0 0 0 0 0 0 0 0 0 0 0 0 0
0 0 0 0 0 0 0 0 0 0 0 0 0 0 0 0 0 0 0 0 0 0 0 0 0 0 0 0 0 0 0 0 0 0 0 0 0 0 0 0 0 0 0
0 0 0 0 0 0 0 0 0 0 0 0 0 0 0 0 0 0 0 0 0 0 0 0 0 0 0 0 0 0 0 0 0 0 0 0 0 0 0 0 0 0 0
0 0 0 0 0 0 0 0 0 0 0 0 0 0 0 0 0 0 0 0 0 0 0 0 0 0 0 0 0 0 0 0 0 0 0 0 0 0 0 0 0 0 0
0 0 0 0 0 0 0 0 0 0 0 0 0 0 0 0 0 0 0 0 0 0 0 0 0 0 0 0 0 0 0 0 0 0 0 0 0 0 0 0 0 0 0
0 0 0 0 0 0 0 0 0 0 0 0 0 0 0 0 0 0 0 0 0 0 0 0 0 0 0 0 0 0 0 0 0 0 0 0 0 0 0 0 0 0 0
0 0 0 0 0 0 0 0 0 0 0 0 0 0 0 0 0 0 0 0 0 0 0 0 0 0 0 0 0 0 0 0 0 0 0 0 0 0 0 0 0 0 0
0 0 0 0 0 0 0 0 0 0 0 0 0 0 0 0 0 0 0 0 0 0 0 0 0 0 0 0 0 0 0 0 0 0 0 0 0 0 0 0 0 0 0
0 0 0 0 0 0 0 0 0 0 0 0 0 0 0 0 0 0 0 0 0 0 0 0 0 0 0 0 0 0 0 0 0 0 0 0 0 0 0 0 0 0 0
0 0 0 0 0 0 0 0 0 0 0 0 0 0 0 0 0 0 0 0 0 0 0 0 0 0 0 0 0 0 0 0 0 0 0 0 0 0 0 0 0 0 0
0 0 0 0 0 0 0 0 0 0 0 0 0 0 0 0 0 0 0 0 0 0 0 0 0 0 0 0 0 0 0 0 0 0 0 0 0 0 0 0 0 0 0
0 0 0 0 0 0 0 0 0 0 0 0 0 0 0 0 0 0 0 0 0 0 0 0 0 0 0 0 0 0 0 0 0 0 0 0 0 0 0 0 0 0 0
0 0 0 0 0 0 0 0 0 0 0 0 0 0 0 0 0 0 0 0 0 0 0 0 0 0 0 0 0 0 0 0 0 0 0 0 0 0 0 0 0 0 0
0 0 0 0 0 0 0 0 0 0 0 0 0 0 0 0 0 0 0 0 0 0 0 0 0 0 0 0 0 0 0 0 0 0 0 0 0 0 0 0 0 0 0
Wind_Speed_500mb
23 27 26 18 21 19 15 16 20 24 25 25 27 27 24 24 24 28 35 31 23 28 36 31 34 33 35 36 37 37 37 36 32 28 31 40 45 48 50 48 41 39 37
29 30 27 23 23 19 15 16 19 22 25 26 27 26 26 25 24 26 33 28 17 23 30 32 34 33 36 39 41 44 44 43 38 28 24 23 34 37 40 48 48 49 48
27 34 27 24 23 18 14 15 18 20 23 26 27 28 27 26 23 31 39 25 19 27 28 33 33 34 37 41 44 47 52 47 37 31 30 31 31 31 29 33 39 42 46
22 34 30 26 24 18 15 14 17 19 22 24 25 27 28 27 26 30 32 28 21 23 30 33 33 34 37 41 44 45 44 33 27 33 37 38 36 33 26 24 23 24 31
25 27 32 29 25 20 17 15 15 16 19 21 23 25 27 27 26 27 24 26 21 28 31 32 33 34 36 41 46 51 36 28 24 35 43 47 47 44 37 30 27 23 22
26 22 26 29 27 22 19 16 15 15 15 17 19 22 24 26 26 26 24 23 23 27 29 29 31 31 33 38 43 43 28 28 42 50 49 49 49 45 50 52 39 35 42
32 28 26 30 28 24 21 17 15 14 13 15 17 19 21 23 22 22 22 22 24 26 27 28 29 29 32 36 36 35 27 37 44 46 52 51 50 50 45 43 50 51 46
32 29 28 32 30 25 22 19 16 14 12 13 14 17 19 20 20 20 21 22 25 26 27 27 26 26 28 33 36 42 34 32 38 40 39 48 37 35 36 35 38 41 39
31 31 34 34 31 27 23 19 16 14 13 12 11 12 15 17 20 22 23 24 25 27 27 27 26 26 29 33 36 38 30 20 23 27 38 30 23 26 27 26 32 34 35
31 31 30 36 34 31 27 22 19 16 14 15 13 14 14 17 21 23 24 25 25 26 27 27 27 26 30 28 28 35 29 31 36 45 43 35 27 34 37 46 47 43 49
34 33 33 33 35 34 30 27 23 20 17 17 14 12 8 12 17 20 19 20 21 22 23 25 25 25 23 18 22 25 20 24 38 38 32 29 37 35 36 40 48 47 45
42 36 34 35 34 32 30 32 29 25 19 18 16 15 11 8 13 12 12 13 14 14 16 20 21 21 20 13 13 14 21 25 41 43 36 26 32 26 32 37 47 46 47
40 44 41 36 36 40 37 35 34 32 24 25 23 22 14 11 8 7 7 9 8 8 8 9 8 9 9 12 11 26 31 32 39 41 45 35 27 30 34 40 45 45 44
45 44 44 43 38 39 43 38 37 34 36 32 31 30 27 17 14 13 11 13 12 10 6 1 4 3 5 15 21 33 36 32 35 41 43 41 38 32 37 41 41 43 43
51 52 53 52 48 46 46 40 43 37 40 38 38 35 32 23 19 21 18 20 14 9 8 5 3 2 5 14 20 23 34 35 36 34 42 46 38 37 40 38 39 42 42
53 55 56 55 52 51 51 48 47 43 42 40 39 40 40 37 31 28 27 20 17 15 14 11 7 5 5 11 19 22 26 34 32 29 23 29 37 34 37 39 38 40 41
60 59 62 60 66 58 55 46 50 49 46 46 43 35 37 43 44 38 32 31 28 23 20 19 13 11 13 15 21 23 26 29 31 32 29 23 13 10 19 32 35 37 39
61 64 66 68 65 69 60 54 54 52 50 50 47 43 36 45 47 48 39 35 31 28 27 24 21 21 21 20 26 28 29 30 33 30 24 19 15 11 10 18 30 36 39
63 67 71 70 68 65 70 73 70 62 50 47 49 51 46 45 48 54 51 41 36 34 32 28 27 25 28 29 32 35 35 33 30 27 24 21 17 13 12 16 17 26 35
64 69 68 74 72 73 83 83 74 67 60 57 55 57 54 50 49 53 54 46 44 39 40 38 35 34 36 35 37 36 33 30 29 27 24 21 17 13 13 14 16 17 23
62 63 73 80 79 80 85 82 76 74 69 64 62 61 59 58 54 53 49 55 53 53 43 40 41 42 47 47 48 39 33 30 31 27 24 19 16 14 15 15 15 18 23
63 69 75 78 78 79 79 80 80 77 77 72 70 68 69 65 56 60 60 60 74 57 49 52 51 48 54 50 49 48 30 26 25 22 20 20 20 18 17 17 17 17 20
54 67 73 74 74 76 74 77 79 78 77 77 76 74 70 65 63 65 58 60 76 63 55 59 53 55 50 62 57 30 20 17 32 24 25 24 22 20 20 20 18 17 18
53 55 65 68 71 72 77 74 75 79 80 80 76 72 69 68 70 68 61 61 64 53 54 68 64 63 55 68 67 58 32 23 30 26 31 27 26 24 23 22 20 17 16
46 52 57 65 70 71 74 74 71 71 72 73 71 70 69 67 67 70 64 62 64 55 59 69 67 65 68 75 69 62 51 33 29 25 37 42 36 29 26 22 20 17 14
42 47 51 60 65 71 74 71 73 65 63 68 68 68 70 71 69 69 68 62 65 69 61 67 68 75 78 73 72 64 63 50 40 30 25 45 39 34 29 25 21 17 13
Wind_Direction_500mb
194 175 163 149 135 127 116 99 87 76 74 73 71 73 78 90 96 86 90 88 78 81 78 79 79 79 79 84 86 87 84 80 79 83 84 87 85 81 78 75 75 74 74
180 170 159 150 140 133 124 107 91 82 81 80 77 76 78 84 91 86 103 90 79 76 80 81 83 83 84 86 88 86 81 74 63 72 85 93 91 89 88 84 80 81 80
183 165 158 155 146 137 123 117 99 84 79 78 78 77 77 82 83 80 96 88 80 79 86 82 83 83 86 89 91 88 80 75 69 62 78 83 89 90 93 93 93 91 88
185 164 164 162 154 146 133 119 102 90 86 82 80 79 79 82 78 88 97 98 81 83 79 80 81 83 88 90 92 91 89 92 91 81 74 74 77 84 93 93 82 78 81
176 178 166 166 161 156 142 128 111 97 88 82 80 77 77 79 82 88 99 106 94 78 78 78 79 83 87 90 91 83 76 75 90 79 76 72 70 70 75 80 77 74 76
161 180 174 171 169 165 157 144 125 112 99 93 88 84 82 84 85 87 95 94 88 83 80 80 81 84 87 92 98 95 91 73 79 76 73 71 67 70 72 70 69 67 69
174 180 187 178 176 173 169 158 142 128 112 104 99 93 87 84 82 87 92 91 86 84 84 84 85 87 90 94 100 94 81 87 90 85 82 83 84 82 78 81 84 83 81
182 184 193 180 180 179 178 174 162 148 133 118 107 97 90 88 91 93 92 91 90 87 84 82 82 85 92 96 99 93 91 104 105 100 97 87 88 87 84 81 85 81 77
186 196 198 184 183 185 187 184 177 167 152 139 124 103 86 80 86 95 99 98 95 92 88 85 85 90 96 106 118 118 113 113 97 109 93 86 88 96 94 91 81 82 73
196 201 197 187 190 191 190 190 189 185 169 146 121 103 89 98 102 99 97 96 97 93 87 86 88 94 109 125 124 120 125 113 100 95 92 92 90 82 82 82 82 78 73
194 203 200 200 196 198 198 193 190 189 177 167 161 138 103 117 114 107 101 95 97 88 84 85 90 97 113 127 126 131 142 119 115 97 100 95 84 92 83 82 78 78 70
197 206 204 205 203 196 205 200 191 190 184 198 202 187 170 136 109 112 109 107 104 94 93 94 99 113 127 137 143 155 157 131 116 115 97 95 98 98 89 84 75 73 73
212 197 205 212 202 201 203 202 202 200 204 204 204 208 213 200 181 198 169 141 134 127 113 104 90 102 123 145 140 127 139 137 124 123 117 109 104 95 86 79 78 72 70
206 200 204 211 210 218 217 211 210 210 202 204 215 211 203 210 214 209 209 192 181 191 206 135 69 96 126 154 161 157 151 144 137 131 123 116 104 99 86 77 75 75 70
204 213 202 206 205 217 223 219 213 219 212 215 213 215 215 219 220 220 225 213 216 219 241 217 220 160 161 173 175 175 167 152 150 149 141 130 133 110 86 84 76 72 71
213 211 213 210 205 211 227 224 219 218 220 222 220 220 219 219 212 222 230 225 225 232 244 225 251 257 227 187 182 184 176 171 174 176 174 161 149 107 89 80 76 73 71
214 213 215 219 198 205 221 225 225 224 222 221 232 225 221 226 224 219 230 225 226 229 230 227 232 237 231 195 180 183 180 174 175 173 171 165 147 127 107 85 80 75 72
216 216 213 223 218 209 213 218 220 226 225 221 225 233 231 235 234 230 227 227 233 231 232 226 229 241 205 201 186 179 180 177 172 176 177 167 163 142 122 103 90 81 77
219 218 220 225 225 210 213 219 219 226 226 225 226 235 240 239 240 237 227 228 227 234 237 235 234 224 207 196 183 176 171 172 173 176 181 180 174 153 127 103 101 101 83
227 219 221 224 228 217 219 224 227 229 232 237 234 236 241 244 242 241 234 226 235 233 224 227 234 219 211 201 183 173 175 178 181 182 184 184 174 156 134 121 112 102 95
226 220 220 225 229 225 225 229 228 230 230 233 234 236 238 244 239 239 244 228 238 227 235 228 230 217 202 202 185 174 172 185 191 187 187 183 169 160 155 147 126 101 87
224 222 223 230 233 233 228 230 230 233 232 234 237 237 239 241 238 239 240 242 243 234 228 234 225 208 207 204 201 188 182 195 190 190 184 182 180 169 157 148 137 121 103
234 230 228 229 231 236 235 230 231 232 234 235 236 237 240 233 226 241 238 236 236 243 241 231 239 223 227 209 207 200 182 204 189 193 195 193 187 176 167 157 148 132 111
239 233 229 229 230 234 240 235 233 235 235 237 239 239 239 233 237 240 243 240 239 234 251 238 232 225 238 221 205 207 210 214 189 189 198 199 195 187 177 164 153 140 123
244 240 230 229 228 232 237 242 238 236 238 240 240 238 238 237 234 239 238 242 242 246 243 235 229 235 233 228 219 216 214 216 213 212 194 194 194 190 185 176 166 151 134
232 232 230 227 227 231 234 238 242 238 237 239 239 241 242 241 241 238 236 237 238 245 242 238 233 233 233 223 224 219 218 215 216 212 209 197 199 189 185 182 174 166 156
Wind_Speed_850mb
23 27 26 18 21 19 15 16 20 24 25 25 27 27 24 24 24 28 35 31 23 28 36 31 34 33 35 36 37 37 37 36 32 28 31 40 45 48 50 48 41 39 37
29 30 27 23 23 19 15 16 19 22 25 26 27 26 26 25 24 26 33 28 17 23 30 32 34 33 36 39 41 44 44 43 38 28 24 23 34 37 40 48 48 49 48
27 34 27 24 23 18 14 15 18 20 23 26 27 28 27 26 23 31 39 25 19 27 28 33 33 34 37 41 44 47 52 47 37 31 30 31 31 31 29 33 39 42 46
22 34 30 26 24 18 15 14 17 19 22 24 25 27 28 27 26 30 32 28 21 23 30 33 33 34 37 41 44 45 44 33 27 33 37 38 36 33 26 24 23 24 31
25 27 32 29 25 20 17 15 15 16 19 21 23 25 27 27 26 27 24 26 21 28 31 32 33 34 36 41 46 51 36 28 24 35 43 47 47 44 37 30 27 23 22
26 22 26 29 27 22 19 16 15 15 15 17 19 22 24 26 26 26 24 23 23 27 29 29 31 31 33 38 43 43 28 28 42 50 49 49 49 45 50 52 39 35 42
32 28 26 30 28 24 21 17 15 14 13 15 17 19 21 23 22 22 22 22 24 26 27 28 29 29 32 36 36 35 27 37 44 46 52 51 50 50 45 43 50 51 46
32 29 28 32 30 25 22 19 16 14 12 13 14 17 19 20 20 20 21 22 25 26 27 27 26 26 28 33 36 42 34 32 38 40 39 48 37 35 36 35 38 41 39
31 31 34 34 31 27 23 19 16 14 13 12 11 12 15 17 20 22 23 24 25 27 27 27 26 26 29 33 36 38 30 20 23 27 38 30 23 26 27 26 32 34 35
31 31 30 36 34 31 27 22 19 16 14 15 13 14 14 17 21 23 24 25 25 26 27 27 27 26 30 28 28 35 29 31 36 45 43 35 27 34 37 46 47 43 49
34 33 33 33 35 34 30 27 23 20 17 17 14 12 8 12 17 20 19 20 21 22 23 25 25 25 23 18 22 25 20 24 38 38 32 29 37 35 36 40 48 47 45
42 36 34 35 34 32 30 32 29 25 19 18 16 15 11 8 13 12 12 13 14 14 16 20 21 21 20 13 13 14 21 25 41 43 36 26 32 26 32 37 47 46 47
40 44 41 36 36 40 37 35 34 32 24 25 23 22 14 11 8 7 7 9 8 8 8 9 8 9 9 12 11 26 31 32 39 41 45 35 27 30 34 40 45 45 44
45 44 44 43 38 39 43 38 37 34 36 32 31 30 27 17 14 13 11 13 12 10 6 1 4 3 5 15 21 33 36 32 35 41 43 41 38 32 37 41 41 43 43
51 52 53 52 48 46 46 40 43 37 40 38 38 35 32 23 19 21 18 20 14 9 8 5 3 2 5 14 20 23 34 35 36 34 42 46 38 37 40 38 39 42 42
53 55 56 55 52 51 51 48 47 43 42 40 39 40 40 37 31 28 27 20 17 15 14 11 7 5 5 11 19 22 26 34 32 29 23 29 37 34 37 39 38 40 41
60 59 62 60 66 58 55 46 50 49 46 46 43 35 37 43 44 38 32 31 28 23 20 19 13 11 13 15 21 23 26 29 31 32 29 23 13 10 19 32 35 37 39
61 64 66 68 65 69 60 54 54 52 50 50 47 43 36 45 47 48 39 35 31 28 27 24 21 21 21 20 26 28 29 30 33 30 24 19 15 11 10 18 30 36 39
63 67 71 70 68 65 70 73 70 62 50 47 49 51 46 45 48 54 51 41 36 34 32 28 27 25 28 29 32 35 35 33 30 27 24 21 17 13 12 16 17 26 35
64 69 68 74 72 73 83 83 74 67 60 57 55 57 54 50 49 53 54 46 44 39 40 38 35 34 36 35 37 36 33 30 29 27 24 21 17 13 13 14 16 17 23
62 63 73 80 79 80 85 82 76 74 69 64 62 61 59 58 54 53 49 55 53 53 43 40 41 42 47 47 48 39 33 30 31 27 24 19 16 14 15 15 15 18 23
63 69 75 78 78 79 79 80 80 77 77 72 70 68 69 65 56 60 60 60 74 57 49 52 51 48 54 50 49 48 30 26 25 22 20 20 20 18 17 17 17 17 20
54 67 73 74 74 76 74 77 79 78 77 77 76 74 70 65 63 65 58 60 76 63 55 59 53 55 50 62 57 30 20 17 32 24 25 24 22 20 20 20 18 17 18
53 55 65 68 71 72 77 74 75 79 80 80 76 72 69 68 70 68 61 61 64 53 54 68 64 63 55 68 67 58 32 23 30 26 31 27 26 24 23 22 20 17 16
46 52 57 65 70 71 74 74 71 71 72 73 71 70 69 67 67 70 64 62 64 55 59 69 67 65 68 75 69 62 51 33 29 25 37 42 36 29 26 22 20 17 14
42 47 51 60 65 71 74 71 73 65 63 68 68 68 70 71 69 69 68 62 65 69 61 67 68 75 78 73 72 64 63 50 40 30 25 45 39 34 29 25 21 17 13
Wind_Direction_850mb
194 175 163 149 135 127 116 99 87 76 74 73 71 73 78 90 96 86 90 88 78 81 78 79 79 79 79 84 86 87 84 80 79 83 84 87 85 81 78 75 75 74 74
180 170 159 150 140 133 124 107 91 82 81 80 77 76 78 84 91 86 103 90 79 76 80 81 83 83 84 86 88 86 81 74 63 72 85 93 91 89 88 84 80 81 80
183 165 158 155 146 137 123 117 99 84 79 78 78 77 77 82 83 80 96 88 80 79 86 82 83 83 86 89 91 88 80 75 69 62 78 83 89 90 93 93 93 91 88
185 164 164 162 154 146 133 119 102 90 86 82 80 79 79 82 78 88 97 98 81 83 79 80 81 83 88 90 92 91 89 92 91 81 74 74 77 84 93 93 82 78 81
176 178 166 166 161 156 142 128 111 97 88 82 80 77 77 79 82 88 99 106 94 78 78 78 79 83 87 90 91 83 76 75 90 79 76 72 70 70 75 80 77 74 76
161 180 174 171 169 165 157 144 125 112 99 93 88 84 82 84 85 87 95 94 88 83 80 80 81 84 87 92 98 95 91 73 79 76 73 71 67 70 72 70 69 67 69
174 180 187 178 176 173 169 158 142 128 112 104 99 93 87 84 82 87 92 91 86 84 84 84 85 87 90 94 100 94 81 87 90 85 82 83 84 82 78 81 84 83 81
182 184 193 180 180 179 178 174 162 148 133 118 107 97 90 88 91 93 92 91 90 87 84 82 82 85 92 96 99 93 91 104 105 100 97 87 88 87 84 81 85 81 77
186 196 198 184 183 185 187 184 177 167 152 139 124 103 86 80 86 95 99 98 95 92 88 85 85 90 96 106 118 118 113 113 97 109 93 86 88 96 94 91 81 82 73
196 201 197 187 190 191 190 190 189 185 169 146 121 103 89 98 102 99 97 96 97 93 87 86 88 94 109 125 124 120 125 113 100 95 92 92 90 82 82 82 82 78 73
194 203 200 200 196 198 198 193 190 189 177 167 161 138 103 117 114 107 101 95 97 88 84 85 90 97 113 127 126 131 142 119 115 97 100 95 84 92 83 82 78 78 70
197 206 204 205 203 196 205 200 191 190 184 198 202 187 170 136 109 112 109 107 104 94 93 94 99 113 127 137 143 155 157 131 116 115 97 95 98 98 89 84 75 73 73
212 197 205 212 202 201 203 202 202 200 204 204 204 208 213 200 181 198 169 141 134 127 113 104 90 102 123 145 140 127 139 137 124 123 117 109 104 95 86 79 78 72 70
206 200 204 211 210 218 217 211 210 210 202 204 215 211 203 210 214 209 209 192 181 191 206 135 69 96 126 154 161 157 151 144 137 131 123 116 104 99 86 77 75 75 70
204 213 202 206 205 217 223 219 213 219 212 215 213 215 215 219 220 220 225 213 216 219 241 217 220 160 161 173 175 175 167 152 150 149 141 130 133 110 86 84 76 72 71
213 211 213 210 205 211 227 224 219 218 220 222 220 220 219 219 212 222 230 225 225 232 244 225 251 257 227 187 182 184 176 171 174 176 174 161 149 107 89 80 76 73 71
214 213 215 219 198 205 221 225 225 224 222 221 232 225 221 226 224 219 230 225 226 229 230 227 232 237 231 195 180 183 180 174 175 173 171 165 147 127 107 85 80 75 72
216 216 213 223 218 209 213 218 220 226 225 221 225 233 231 235 234 230 227 227 233 231 232 226 229 241 205 201 186 179 180 177 172 176 177 167 163 142 122 103 90 81 77
219 218 220 225 225 210 213 219 219 226 226 225 226 235 240 239 240 237 227 228 227 234 237 235 234 224 207 196 183 176 171 172 173 176 181 180 174 153 127 103 101 101 83
227 219 221 224 228 217 219 224 227 229 232 237 234 236 241 244 242 241 234 226 235 233 224 227 234 219 211 201 183 173 175 178 181 182 184 184 174 156 134 121 112 102 95
226 220 220 225 229 225 225 229 228 230 230 233 234 236 238 244 239 239 244 228 238 227 235 228 230 217 202 202 185 174 172 185 191 187 187 183 169 160 155 147 126 101 87
224 222 223 230 233 233 228 230 230 233 232 234 237 237 239 241 238 239 240 242 243 234 228 234 225 208 207 204 201 188 182 195 190 190 184 182 180 169 157 148 137 121 103
234 230 228 229 231 236 235 230 231 232 234 235 236 237 240 233 226 241 238 236 236 243 241 231 239 223 227 209 207 200 182 204 189 193 195 193 187 176 167 157 148 132 111
239 233 229 229 230 234 240 235 233 235 235 237 239 239 239 233 237 240 243 240 239 234 251 238 232 225 238 221 205 207 210 214 189 189 198 199 195 187 177 164 153 140 123
244 240 230 229 228 232 237 242 238 236 238 240 240 238 238 237 234 239 238 242 242 246 243 235 229 235 233 228 219 216 214 216 213 212 194 194 194 190 185 176 166 151 134
232 232 230 227 227 231 234 238 242 238 237 239 239 241 242 241 241 238 236 237 238 245 242 238 233 233 233 223 224 219 218 215 216 212 209 197 199 189 185 182 174 166 156